CW9790 Weather Reports


Display with metric or nautical units.
time (UTC)temp
F
wind
direction
speed
MPH
gust
MPH
rain 1hr
in
rain 24hr
in
rain mn
in
humidity
%
barometer
mb
20260903065016 80 135 1.0 6.0 0.00 0.00 0.00 73 1013.5
20260903064016 80 135 1.0 6.0 0.00 0.00 0.00 71 1013.4
20260903063016 80 135 1.0 5.0 0.00 0.00 0.00 69 1013.3
20260903062017 81 135 2.0 6.0 0.00 0.00 0.00 69 1013.2
20260903061016 81 135 1.0 5.0 0.00 0.00 0.00 67 1013.2
20260903060016 81 135 2.0 5.0 0.00 0.00 0.00 66 1013.2
20260903055017 81 158 1.0 4.0 0.00 0.00 0.00 64 1013.1
20260903054036 81 135 1.0 7.0 0.00 0.00 0.00 63 1013.2
20260903053018 81 158 1.0 3.0 0.00 0.00 0.00 61 1013.0
20260903052016 80 158 1.0 3.0 0.00 0.00 0.00 59 1012.8
20260903051016 80 135 2.0 9.0 0.00 0.00 0.00 60 1012.7
20260903050016 79 135 1.0 5.0 0.00 0.00 0.00 60 1012.5
20260903045018 79 0.0 0.0 0.00 0.00 0.00 59 1012.3
20260903044017 79 0.0 0.0 0.00 0.00 0.00 59 1012.4
20260903043018 80 0.0 0.0 0.00 0.00 0.00 59 1012.3
20260903042058 80 0.0 0.0 0.00 0.00 0.00 59 1012.3
20260903041038 80 0.0 0.0 0.00 0.00 0.00 59 1012.3
20260903040018 80 0.0 0.0 0.00 0.00 0.00 59 1011.9
20260903035017 81 0.0 0.0 0.00 0.00 0.00 59 1012.1
20260903034018 81 0.0 0.0 0.00 0.00 0.00 58 1012.0
20260903033017 82 0.0 0.0 0.00 0.00 0.00 58 1011.7
20260903032017 82 0.0 0.0 0.00 0.00 0.00 57 1011.5
20260903031017 82 0.0 0.0 0.00 0.00 0.00 56 1011.4
20260903030018 83 0.0 0.0 0.00 0.00 0.00 56 1011.2
20260903025017 83 0.0 0.0 0.00 0.00 0.00 56 1011.1
20260903024017 84 0.0 1.0 0.00 0.00 0.00 55 1011.0
20260903023037 84 0.0 0.0 0.00 0.00 0.00 53 1010.6
20260903022037 85 0.0 0.0 0.00 0.00 0.00 52 1010.5
20260903021017 85 0.0 0.0 0.00 0.00 0.00 51 1010.3
20260903020139 86 0.0 0.0 0.00 0.00 0.00 50 1010.1
20260903015017 86 0.0 2.0 0.00 0.00 0.00 49 1010.0
20260903014017 87 0.0 0.0 0.00 0.00 0.00 47 1009.9
20260903013017 88 0.0 1.0 0.00 0.00 0.00 45 1009.9
20260903012017 89 0.0 0.0 0.00 0.00 0.00 44 1009.8
20260903011018 91 0.0 0.0 0.00 0.00 0.00 42 1009.8
20260903010017 92 0.0 0.0 0.00 0.00 0.00 41 1009.7
20260903005017 93 0.0 0.0 0.00 0.00 0.00 39 1009.9
20260903004017 94 0.0 1.0 0.00 0.00 0.00 38 1009.9
20260903003017 95 0.0 1.0 0.00 0.00 0.00 37 1010.0
20260903002017 96 135 1.0 4.0 0.00 0.00 0.00 35 1009.9
20260903001018 97 113 1.0 3.0 0.00 0.00 0.00 35 1010.2
20260903000017 97 135 1.0 4.0 0.00 0.00 0.00 33 1010.2
20260902235017 98 135 1.0 4.0 0.00 0.00 0.00 32 1010.3
20260902234017 99 135 2.0 4.0 0.00 0.00 0.00 31 1010.5
20260902233017 100 135 1.0 3.0 0.00 0.00 0.00 31 1010.6
20260902232036 100 135 1.0 6.0 0.00 0.00 0.00 29 1010.6
20260902231016 100 135 2.0 4.0 0.00 0.00 0.00 30 1010.5
20260902230017 101 158 1.0 4.0 0.00 0.00 0.00 30 1010.5
20260902225017 101 113 1.0 11.0 0.00 0.00 0.00 29 1010.6
20260902224017 101 23 1.0 4.0 0.00 0.00 0.00 31 1010.6
20260902223017 102 135 2.0 5.0 0.00 0.00 0.00 29 1010.8
20260902222016 102 135 2.0 6.0 0.00 0.00 0.00 28 1010.9
20260902221017 102 135 1.0 7.0 0.00 0.00 0.00 29 1011.0
20260902220016 102 135 2.0 7.0 0.00 0.00 0.00 27 1011.0
20260902215016 102 113 1.0 6.0 0.00 0.00 0.00 28 1010.9
20260902214016 102 135 2.0 6.0 0.00 0.00 0.00 28 1011.1
20260902213017 102 203 2.0 6.0 0.00 0.00 0.00 27 1011.2
20260902212016 102 158 2.0 8.0 0.00 0.00 0.00 27 1011.3
20260902211016 102 180 2.0 7.0 0.00 0.00 0.00 26 1011.2
20260902210016 102 180 1.0 6.0 0.00 0.00 0.00 28 1011.4
20260902205036 101 68 2.0 6.0 0.00 0.00 0.00 28 1011.6
20260902204017 101 113 2.0 7.0 0.00 0.00 0.00 29 1011.8
20260902203016 101 45 2.0 4.0 0.00 0.00 0.00 29 1012.0
20260902202057 101 113 2.0 6.0 0.00 0.00 0.00 28 1012.1
20260902201016 101 0 2.0 6.0 0.00 0.00 0.00 32 1012.4
20260902200016 100 135 3.0 7.0 0.00 0.00 0.00 30 1012.6
20260902195056 101 45 2.0 7.0 0.00 0.00 0.00 31 1012.8
20260902194016 100 23 2.0 5.0 0.00 0.00 0.00 33 1013.0
20260902193016 100 135 3.0 9.0 0.00 0.00 0.00 32 1013.0
20260902192016 100 203 3.0 10.0 0.00 0.00 0.00 32 1013.1
20260902191018 99 225 3.0 7.0 0.00 0.00 0.00 33 1013.3
20260902190018 100 135 3.0 7.0 0.00 0.00 0.00 33 1013.7
20260902185018 100 135 2.0 6.0 0.00 0.00 0.00 33 1013.8
20260902184018 100 203 2.0 6.0 0.00 0.00 0.00 35 1013.9
20260902183039 99 135 2.0 6.0 0.00 0.00 0.00 35 1014.1
20260902182018 98 135 3.0 7.0 0.00 0.00 0.00 37 1014.2
20260902181018 98 135 3.0 6.0 0.00 0.00 0.00 37 1014.5
20260902180018 98 135 2.0 6.0 0.00 0.00 0.00 37 1014.6
20260902175017 98 203 2.0 6.0 0.00 0.00 0.00 38 1014.7
20260902174017 97 225 3.0 7.0 0.00 0.00 0.00 38 1014.8
20260902173017 97 180 3.0 9.0 0.00 0.00 0.00 39 1014.9
20260902172018 96 270 2.0 6.0 0.00 0.00 0.00 39 1015.1
20260902171017 95 225 3.0 7.0 0.00 0.00 0.00 39 1015.1
20260902170017 95 225 3.0 9.0 0.00 0.00 0.00 41 1015.1
20260902165017 94 270 2.0 6.0 0.00 0.00 0.00 41 1015.1
20260902164018 94 270 3.0 12.0 0.00 0.00 0.00 41 1015.3
20260902163018 93 158 2.0 7.0 0.00 0.00 0.00 42 1015.3
20260902162017 93 225 2.0 7.0 0.00 0.00 0.00 43 1015.2
20260902161017 91 135 3.0 7.0 0.00 0.00 0.00 46 1015.3
20260902160017 90 225 2.0 5.0 0.00 0.00 0.00 48 1015.2
20260902155017 89 248 2.0 6.0 0.00 0.00 0.00 53 1015.2
20260902154019 87 158 3.0 9.0 0.00 0.00 0.00 55 1015.1
20260902153018 86 225 3.0 7.0 0.00 0.00 0.00 57 1015.1
20260902152017 85 225 2.0 7.0 0.00 0.00 0.00 62 1015.2
20260902151017 83 135 3.0 5.0 0.00 0.00 0.00 64 1015.1
20260902150017 82 158 3.0 7.0 0.00 0.00 0.00 66 1015.1
20260902145019 81 203 2.0 5.0 0.00 0.00 0.00 69 1014.9
20260902144017 80 180 2.0 5.0 0.00 0.00 0.00 72 1014.8
20260902143017 79 180 2.0 5.0 0.00 0.00 0.00 76 1015.0
20260902142038 78 158 2.0 7.0 0.00 0.00 0.00 79 1014.8
20260902141018 76 135 1.0 4.0 0.00 0.00 0.00 83 1014.8
20260902140017 76 135 2.0 4.0 0.00 0.00 0.00 84 1014.9
20260902135017 75 135 1.0 4.0 0.00 0.00 0.00 86 1014.8
20260902134017 74 0.0 4.0 0.00 0.00 0.00 88 1014.7
20260902133017 73 135 1.0 3.0 0.00 0.00 0.00 88 1014.7
20260902132016 73 0.0 2.0 0.00 0.00 0.00 89 1014.6
20260902131017 72 0.0 0.0 0.00 0.00 0.00 89 1014.4
20260902130017 71 0.0 0.0 0.00 0.00 0.00 88 1014.5
20260902125016 71 0.0 0.0 0.00 0.00 0.00 88 1014.4
20260902124016 71 0.0 0.0 0.00 0.00 0.00 86 1014.3
20260902123016 71 0.0 0.0 0.00 0.00 0.00 86 1014.4
20260902122038 71 0.0 0.0 0.00 0.00 0.00 86 1014.3
20260902121016 71 0.0 0.0 0.00 0.00 0.00 86 1014.3
20260902120018 71 0.0 0.0 0.00 0.00 0.00 86 1014.3
20260902115017 72 0.0 0.0 0.00 0.00 0.00 86 1014.3
20260902114017 72 0.0 0.0 0.00 0.00 0.00 85 1014.3
20260902113016 72 0.0 0.0 0.00 0.00 0.00 85 1014.5
20260902112017 72 0.0 0.0 0.00 0.00 0.00 85 1014.5
20260902111058 72 0.0 0.0 0.00 0.00 0.00 84 1014.6
20260902110017 72 0.0 0.0 0.00 0.00 0.00 84 1014.6
20260902105016 72 0.0 0.0 0.00 0.00 0.00 84 1014.6
20260902104016 72 0.0 0.0 0.00 0.00 0.00 84 1014.6
20260902103016 72 0.0 0.0 0.00 0.00 0.00 83 1014.5
20260902102036 72 0.0 0.0 0.00 0.00 0.00 83 1014.5
20260902101017 72 0.0 0.0 0.00 0.00 0.00 83 1014.5
20260902100016 72 0.0 0.0 0.00 0.00 0.00 82 1014.6
20260902095016 72 0.0 0.0 0.00 0.00 0.00 82 1014.6
20260902094017 73 0.0 0.0 0.00 0.00 0.00 82 1014.6
20260902093017 73 0.0 0.0 0.00 0.00 0.00 81 1014.7
20260902092017 73 0.0 0.0 0.00 0.00 0.00 81 1014.6
20260902091016 73 0.0 0.0 0.00 0.00 0.00 81 1014.5
20260902090016 73 0.0 0.0 0.00 0.00 0.00 80 1014.6
20260902085016 73 0.0 0.0 0.00 0.00 0.00 80 1014.6
20260902084017 74 0.0 0.0 0.00 0.00 0.00 80 1014.9
20260902083016 74 0.0 0.0 0.00 0.00 0.00 80 1015.0
20260902082017 74 0.0 0.0 0.00 0.00 0.00 79 1014.9
20260902081036 74 0.0 0.0 0.00 0.00 0.00 78 1014.9
20260902080057 74 0.0 0.0 0.00 0.00 0.00 77 1014.7
20260902075016 75 0.0 0.0 0.00 0.00 0.00 77 1015.0
20260902074016 75 0.0 0.0 0.00 0.00 0.00 77 1015.0
20260902073017 75 0.0 0.0 0.00 0.00 0.00 76 1014.9
20260902072018 75 0.0 0.0 0.00 0.00 0.00 75 1014.9
20260902071018 76 0.0 0.0 0.00 0.00 0.00 74 1014.8
20260902070022 76 0.0 0.0 0.00 0.00 0.00 73 1014.8